Kaiwo Maru — JMMU — position and weather

sailwx.info

Track history (hours):
 
Tides and Currents Weather Stations Pressure Air Temp Water Temp Dewpoint Dewpoint Depression Visibility Wind Speed Wind Dir Waves Ship Positions

Kaiwo Maru (Japan)

Built in 1989. Trains merchant marine cadets for Japan's National Institute for Sea Training.

Ship's website: http://www.kohkun.go.jp/en/ships/kaiwomaru.html

Last reported at 2020-Jan-21 04:00 UTC. Time now 2020-Jan-21 23:41 UTC.
Position N 34°20' E 134°60'.

Length 110.1 m; beam 13.8 m; draft 6 m.

Type: Sailing vessel. MMSI: 431006000.

Date/timePositionNaut miles runAvg speedWind from/ knotsBaromVisibWave heightAir tempDewpointWater temp
2020-Jan-21 04:00N 34°20' E 134°60'510.4
2020-Jan-21 03:30N 34°24' E 135°04'510.6
2020-Jan-21 03:00N 34°28' E 135°09'1510.0
2020-Jan-21 01:30N 34°38' E 135°22'3 5.1
2020-Jan-21 00:55N 34°39' E 135°26'0 0.0
2020-Jan-20 20:55N 34°39' E 135°26'0 0.0
2020-Jan-20 18:01N 34°39' E 135°26'0 0.0
2020-Jan-20 16:49N 34°39' E 135°26'0 0.0
2020-Jan-20 14:49N 34°39' E 135°26'0 0.0
2020-Jan-20 13:25N 34°39' E 135°26'0 0.0
2020-Jan-20 11:49N 34°39' E 135°26'0 0.0
2020-Jan-20 10:37N 34°39' E 135°26'0 0.0
2020-Jan-20 09:25N 34°39' E 135°26'0 0.0
2020-Jan-20 08:49N 34°39' E 135°26'0 0.0
2020-Jan-18 21:34N 34°39' E 135°26'0 0.0
2020-Jan-18 21:22N 34°39' E 135°26'0 0.0
2020-Jan-18 17:49N 34°39' E 135°26'  
2020-Jan-16 04:30N 34°32' E 134°45'5 9.5
2020-Jan-16 04:00N 34°30' E 134°39'6 9.8
2020-Jan-16 03:23N 34°28' E 134°32'  
2020-Jan-11 23:32N 34°25' E 134°22'810.7
2020-Jan-11 22:49N 34°28' E 134°31'310.7
2020-Jan-11 22:30N 34°29' E 134°34'1110.9
2020-Jan-11 21:30N 34°33' E 134°46'611.0
2020-Jan-11 21:00N 34°35' E 134°53'22 5.5
2020-Jan-11 17:00N 34°14' E 134°59'10 9.4
2020-Jan-11 15:58N 34°04' E 134°58'  
Track history (hours):
 
Tides and Currents Weather Stations Pressure Air Temp Water Temp Dewpoint Dewpoint Depression Visibility Wind Speed Wind Dir Waves Ship Positions

Kaiwo Maru (Japan)

Built in 1989. Trains merchant marine cadets for Japan's National Institute for Sea Training.

Ship's website: http://www.kohkun.go.jp/en/ships/kaiwomaru.html

Last reported at 2020-Jan-21 04:00 UTC. Time now 2020-Jan-21 23:41 UTC.
Position N 34°20' E 134°60'.

Length 110.1 m; beam 13.8 m; draft 6 m.

Type: Sailing vessel. MMSI: 431006000.

Date/timePositionNaut miles runAvg speedWind from/ knotsBaromVisibWave heightAir tempDewpointWater temp
2020-Jan-21 04:00N 34°20' E 134°60'510.4
2020-Jan-21 03:30N 34°24' E 135°04'510.6
2020-Jan-21 03:00N 34°28' E 135°09'1510.0
2020-Jan-21 01:30N 34°38' E 135°22'3 5.1
2020-Jan-21 00:55N 34°39' E 135°26'0 0.0
2020-Jan-20 20:55N 34°39' E 135°26'0 0.0
2020-Jan-20 18:01N 34°39' E 135°26'0 0.0
2020-Jan-20 16:49N 34°39' E 135°26'0 0.0
2020-Jan-20 14:49N 34°39' E 135°26'0 0.0
2020-Jan-20 13:25N 34°39' E 135°26'0 0.0
2020-Jan-20 11:49N 34°39' E 135°26'0 0.0
2020-Jan-20 10:37N 34°39' E 135°26'0 0.0
2020-Jan-20 09:25N 34°39' E 135°26'0 0.0
2020-Jan-20 08:49N 34°39' E 135°26'0 0.0
2020-Jan-18 21:34N 34°39' E 135°26'0 0.0
2020-Jan-18 21:22N 34°39' E 135°26'0 0.0
2020-Jan-18 17:49N 34°39' E 135°26'  
2020-Jan-16 04:30N 34°32' E 134°45'5 9.5
2020-Jan-16 04:00N 34°30' E 134°39'6 9.8
2020-Jan-16 03:23N 34°28' E 134°32'  
2020-Jan-11 23:32N 34°25' E 134°22'810.7
2020-Jan-11 22:49N 34°28' E 134°31'310.7
2020-Jan-11 22:30N 34°29' E 134°34'1110.9
2020-Jan-11 21:30N 34°33' E 134°46'611.0
2020-Jan-11 21:00N 34°35' E 134°53'22 5.5
2020-Jan-11 17:00N 34°14' E 134°59'10 9.4
2020-Jan-11 15:58N 34°04' E 134°58'  

Dump ship's entire track history